Location: Newark
(47.3000°N, 8.0500°E)
Time: 08:35:24
(UTC+00:00)

OTV 5 (USA 277) - Pass Details

Date: 30 August 2019
Orbit: 295 x 339 km, 54.5° (Epoch: 08 September)

Event Time Altitude Azimuth Distance (km) Brightness Sun altitude
Rises 19:21:06 0° 272° (W) 2,005 ? -11.7°
Reaches altitude 10° 19:23:17 10° 288° (WNW) 1,175 ? -12.0°
Maximum altitude 19:25:25 22° 344° (NNW) 718 ? -12.3°
Drops below altitude 10° 19:27:33 10° 40° (NE) 1,168 ? -12.7°
Enters shadow 19:28:25 - 49° (NE) 1,481 ? -12.8°
